Temp
62 62 62 61 60 60 60 60 60 59 58 58 58 58 58 59 59 59 58 57 58 58 58 58 59 59 56 57 63 77 68 68 70 70 69 68 66 65 63 62 64 62 64 65 66 67 64
61 61 60 60 60 60 60 60 59 58 58 58 57 57 57 58 58 58 58 57 57 57 57 58 59 59 54 56 77 78 74 71 72 70 70 71 70 69 65 66 63 66 64 62 63 65 65
61 60 60 59 59 59 59 59 58 58 58 58 57 57 57 57 57 57 57 57 57 57 57 58 59 59 58 65 73 73 76 75 73 74 73 73 72 68 67 60 67 64 60 61 60 60 60
61 60 60 59 58 58 58 58 58 58 58 58 58 57 57 57 57 57 57 56 56 57 57 58 59 56 59 77 73 76 78 78 79 76 77 76 74 70 65 66 64 59 57 51 59 61 61
60 60 60 59 58 58 58 58 58 58 58 58 57 57 57 56 56 56 56 56 56 57 58 58 54 55 62 77 75 78 77 76 77 76 74 80 72 63 63 56 51 53 47 49 55 61 58
60 60 59 59 58 58 58 58 57 57 57 57 57 57 57 56 56 56 55 56 57 56 57 62 64 57 67 69 74 75 75 76 73 71 70 68 61 56 54 52 44 47 48 51 51 55 57
60 60 59 59 58 59 59 58 58 57 57 57 57 57 57 57 56 56 53 52 56 55 57 60 62 64 68 74 76 72 74 73 71 66 56 61 54 49 50 53 56 54 50 48 50 56 55
60 59 59 59 59 59 59 59 57 57 56 57 57 57 57 57 57 56 53 57 63 64 56 65 66 67 71 71 66 69 74 65 63 55 59 56 50 56 61 59 57 55 51 48 53 57 55
59 58 59 59 59 59 59 59 57 57 56 56 57 58 58 57 56 55 57 61 67 65 55 63 68 67 69 72 64 64 69 64 60 57 55 51 55 62 60 56 55 51 49 48 50 53 54
58 57 58 58 58 58 58 58 57 57 56 56 57 57 55 55 57 58 58 66 66 64 47 56 62 68 71 69 62 70 70 66 61 56 56 56 60 59 56 55 53 48 55 54 52 48 41
57 57 57 57 57 57 56 56 56 56 56 56 57 56 55 56 57 58 66 66 64 62 31 57 63 72 68 65 64 65 69 67 57 57 57 52 54 55 54 53 55 52 55 52 51 45 42
57 57 56 57 56 56 56 55 55 53 55 56 56 56 54 55 52 61 64 61 62 43 33 54 63 60 61 62 61 64 65 67 63 58 57 55 58 57 55 57 57 57 53 50 46 44 34
56 56 56 56 56 56 56 55 52 52 53 56 55 55 56 62 60 63 60 58 42 33 56 52 55 59 57 55 58 58 55 53 51 46 45 53 53 56 58 52 55 53 45 32 32 30 31
56 56 56 56 56 55 55 53 52 51 53 56 54 53 55 61 62 61 58 51 36 50 52 58 58 56 54 57 55 55 52 49 53 51 46 43 41 52 58 52 49 48 46 32 33 28 32
56 55 55 55 55 54 53 52 52 51 54 54 54 54 57 60 62 59 53 38 42 49 57 56 57 51 50 55 55 53 48 48 50 51 46 43 44 55 56 56 55 48 42 48 35 32 28
56 55 55 55 52 52 52 52 52 51 55 54 56 55 57 61 60 57 47 43 50 58 59 59 50 53 48 52 51 50 48 53 52 54 53 50 42 52 55 57 55 51 53 39 34 29 29
55 55 55 52 51 51 51 51 52 51 54 54 56 53 59 60 58 51 41 45 54 61 61 57 53 51 52 50 51 48 48 52 54 54 54 50 46 45 51 48 45 48 44 43 41 33 28
54 54 53 51 51 51 51 51 52 52 53 56 52 47 59 58 48 42 44 53 55 58 62 59 57 55 52 52 48 47 48 50 54 53 48 48 43 34 44 51 52 49 45 44 30 34 28
54 54 53 52 51 51 51 52 51 52 54 54 50 51 59 57 38 35 49 55 57 57 57 56 54 56 55 50 45 48 48 53 54 52 48 49 41 32 39 46 50 46 47 44 39 33 32
53 53 52 52 51 51 51 51 51 51 53 55 51 43 49 50 47 48 48 51 51 57 57 58 56 57 53 49 50 46 47 52 52 52 50 51 43 39 33 39 42 40 44 44 41 29 31
53 52 52 51 51 51 51 51 51 51 53 55 50 47 50 41 45 48 51 52 51 51 57 57 54 54 51 44 45 44 48 49 52 51 50 48 39 40 41 42 43 42 43 42 41 39 34
53 52 50 50 50 50 50 51 52 52 53 54 50 48 48 46 50 50 46 50 52 53 54 52 52 51 51 48 49 45 48 46 46 49 45 46 35 37 36 40 40 38 43 42 41 41 41
52 51 50 50 50 50 51 52 52 52 57 53 53 53 51 43 44 44 45 52 54 55 52 54 53 48 44 48 49 48 49 50 51 47 42 40 34 32 29 34 34 29 39 43 44 44 42
51 50 51 51 51 51 51 51 51 52 54 57 54 53 46 38 43 48 53 54 53 53 51 52 53 48 52 53 51 51 49 48 48 45 47 36 32 27 24 26 21 41 46 46 44 42 42
50 50 51 51 51 51 48 48 48 50 53 58 54 52 45 34 45 50 51 49 50 49 48 49 51 52 53 48 38 39 34 37 39 43 42 43 31 26 22 25 34 42 44 42 41 40 44
50 51 51 51 52 48 48 49 51 52 53 57 54 52 49 43 44 53 49 50 44 42 44 47 53 52 48 33 32 29 30 36 34 38 42 40 34 29 25 19 19 37 44 49 47 33 44
50 51 51 51 52 48 49 51 51 52 54 56 54 55 53 44 48 50 48 48 48 44 41 45 46 45 46 28 25 27 31 39 32 31 28 28 25 24 16 18 29 41 48 49 33 35 42
50 50 51 51 51 49 48 49 50 51 54 57 53 54 54 45 49 52 53 50 48 46 41 46 44 41 34 31 28 28 23 32 32 37 33 31 27 26 23 19 26 45 45 39 42 41 44
50 50 50 50 47 49 49 49 50 51 53 55 53 55 55 51 50 53 54 54 53 54 48 45 47 44 42 33 30 32 26 33 29 28 40 32 36 32 35 34 43 45 44 45 45 43 42
MSLP
1017.20 1017.56 1017.70 1017.77 1017.77 1017.75 1017.78 1017.37 1017.01 1016.85 1016.72 1016.68 1016.51 1016.30 1015.90 1015.70 1015.74 1015.85 1015.96 1015.90 1015.74 1015.70 1015.84 1015.57 1015.41 1015.40 1015.24 1014.30 1011.42 1008.87 1009.24 1009.71 1010.33 1010.66 1010.74 1010.80 1010.78 1010.73 1010.60 1010.24 1010.23 1010.43 1010.15 1009.71 1009.80 1010.11 1010.69
1016.72 1016.71 1017.08 1017.20 1017.40 1017.21 1017.39 1017.01 1016.60 1016.38 1016.26 1016.13 1016.01 1015.79 1015.51 1015.40 1015.43 1015.55 1015.66 1015.61 1015.40 1015.54 1015.51 1015.35 1015.37 1015.38 1015.00 1012.78 1009.02 1009.01 1009.39 1009.88 1010.04 1010.41 1010.20 1010.19 1009.61 1009.58 1009.93 1009.54 1009.77 1010.06 1010.07 1010.33 1010.29 1010.48 1010.61
1016.04 1016.45 1016.40 1016.78 1016.87 1016.71 1016.86 1016.68 1016.16 1015.89 1015.81 1015.61 1015.53 1015.25 1015.21 1015.10 1015.07 1015.26 1015.39 1015.29 1015.18 1015.30 1015.30 1015.22 1015.27 1015.23 1014.17 1010.48 1008.74 1008.80 1009.05 1008.84 1009.10 1009.31 1009.24 1009.06 1008.64 1009.16 1009.36 1009.79 1009.79 1010.43 1010.92 1010.90 1010.72 1010.68 1010.81
1015.49 1015.81 1015.88 1016.12 1016.40 1016.39 1016.29 1016.19 1015.68 1015.32 1015.42 1015.16 1015.02 1014.85 1014.84 1014.75 1014.77 1015.06 1015.09 1014.98 1015.04 1015.16 1015.13 1015.15 1015.26 1015.09 1012.57 1009.08 1008.72 1008.71 1008.38 1008.24 1008.06 1008.46 1008.18 1007.81 1008.04 1008.50 1008.98 1009.73 1010.55 1011.11 1011.62 1011.67 1011.27 1011.14 1011.32
1014.86 1015.10 1015.24 1015.50 1015.82 1015.82 1015.88 1015.61 1015.36 1014.88 1015.01 1014.67 1014.50 1014.51 1014.49 1014.43 1014.61 1014.75 1014.76 1014.82 1014.99 1015.08 1015.08 1015.06 1015.21 1014.49 1011.30 1008.79 1008.58 1008.03 1008.00 1008.05 1007.80 1007.92 1007.69 1007.63 1007.89 1009.30 1009.87 1010.82 1011.79 1012.02 1012.21 1012.02 1011.64 1011.43 1011.76
1014.28 1014.54 1014.68 1014.97 1015.16 1015.22 1015.31 1015.00 1014.90 1014.61 1014.56 1014.21 1014.09 1014.21 1014.16 1014.20 1014.29 1014.46 1014.56 1014.80 1014.85 1014.87 1015.04 1014.94 1014.35 1013.84 1010.49 1009.11 1008.35 1007.87 1007.78 1007.72 1007.87 1007.88 1008.19 1008.71 1009.53 1010.41 1011.10 1011.50 1012.30 1012.38 1012.29 1012.36 1012.13 1012.10 1012.52
1013.49 1013.93 1014.10 1014.42 1014.56 1014.56 1014.69 1014.47 1014.28 1014.45 1014.09 1013.81 1013.80 1013.88 1013.94 1013.84 1014.07 1014.20 1014.72 1014.87 1015.00 1014.64 1014.20 1013.01 1012.34 1011.33 1009.94 1008.97 1008.25 1007.95 1007.82 1007.89 1008.25 1009.01 1009.82 1010.09 1010.98 1011.36 1011.71 1011.72 1011.78 1011.99 1012.34 1012.65 1012.54 1012.56 1013.20
1012.82 1013.06 1013.65 1013.85 1013.91 1014.12 1013.97 1013.99 1013.74 1014.18 1013.65 1013.47 1013.57 1013.58 1013.61 1013.60 1013.94 1014.16 1014.21 1013.68 1012.30 1012.05 1012.30 1011.49 1011.20 1010.64 1009.67 1009.29 1008.88 1008.20 1008.05 1008.64 1009.14 1009.88 1010.24 1010.92 1011.23 1011.33 1011.59 1011.71 1011.93 1012.38 1012.67 1012.89 1012.96 1013.24 1014.23
1011.96 1012.53 1013.08 1013.33 1013.28 1013.59 1013.38 1013.44 1013.43 1013.73 1013.34 1013.14 1013.25 1013.34 1013.37 1013.54 1014.03 1014.07 1013.54 1012.41 1011.31 1011.44 1011.64 1010.65 1010.03 1009.76 1009.23 1008.97 1008.77 1008.53 1008.46 1008.91 1009.56 1010.24 1010.83 1011.44 1011.66 1011.48 1011.86 1012.40 1012.59 1013.18 1013.26 1013.35 1013.55 1014.07 1014.99
1011.14 1011.73 1012.29 1012.69 1012.81 1013.07 1012.78 1012.90 1013.13 1013.21 1012.97 1012.88 1012.96 1013.09 1013.27 1013.50 1014.14 1013.29 1012.72 1011.42 1011.04 1011.07 1011.51 1010.57 1009.60 1008.63 1008.46 1008.45 1008.82 1008.66 1008.61 1009.11 1009.80 1010.74 1011.46 1011.97 1011.96 1012.00 1012.19 1012.76 1013.10 1013.44 1013.43 1013.67 1014.25 1015.23 1016.23
1010.44 1011.14 1011.61 1012.19 1012.33 1012.44 1012.33 1012.37 1012.90 1012.69 1012.54 1012.58 1012.71 1012.89 1013.23 1013.23 1013.11 1012.73 1011.52 1011.12 1010.93 1011.11 1011.71 1010.43 1009.16 1008.08 1008.24 1008.79 1009.03 1008.98 1008.77 1009.18 1010.17 1011.02 1011.77 1012.66 1012.55 1012.51 1012.74 1012.96 1013.15 1013.70 1013.96 1014.63 1015.32 1016.32 1017.03
1009.48 1010.43 1011.01 1011.53 1011.93 1011.81 1011.87 1011.97 1012.57 1012.32 1012.17 1012.23 1012.39 1012.69 1013.04 1013.44 1013.12 1011.55 1011.12 1011.05 1011.20 1012.37 1011.45 1010.18 1009.11 1008.71 1008.93 1009.13 1009.48 1009.53 1009.61 1009.95 1010.65 1011.65 1012.18 1012.78 1012.69 1012.74 1012.89 1013.01 1013.29 1013.71 1014.65 1015.77 1016.71 1017.46 1018.22
1008.76 1009.68 1010.48 1011.10 1011.34 1011.35 1011.41 1011.56 1012.20 1011.95 1011.87 1011.84 1012.07 1012.48 1012.52 1012.10 1011.86 1011.07 1011.28 1011.69 1012.86 1012.45 1010.95 1010.48 1009.88 1009.55 1009.66 1009.98 1010.26 1010.49 1011.31 1011.69 1012.14 1012.92 1013.72 1013.66 1013.51 1013.20 1013.08 1013.38 1013.61 1014.21 1015.65 1017.26 1018.66 1019.09 1019.34
1008.10 1008.98 1009.75 1010.55 1010.82 1010.93 1010.93 1011.33 1011.79 1011.58 1011.63 1011.41 1011.75 1012.35 1012.03 1011.71 1011.12 1011.17 1011.59 1012.67 1013.28 1011.69 1010.78 1010.12 1010.05 1010.32 1010.48 1010.58 1011.08 1011.52 1012.26 1012.99 1013.07 1013.38 1014.41 1014.43 1014.31 1013.83 1013.54 1013.68 1014.10 1014.89 1016.02 1017.65 1019.21 1020.27 1020.18
1007.61 1008.24 1009.02 1010.10 1010.32 1010.60 1010.33 1010.92 1011.51 1011.25 1011.25 1011.18 1011.67 1012.37 1011.94 1011.01 1010.97 1011.32 1012.35 1013.71 1012.63 1011.46 1010.35 1010.10 1010.45 1010.86 1010.93 1011.03 1011.57 1012.31 1013.13 1013.66 1013.69 1013.71 1014.16 1014.61 1014.68 1014.18 1013.86 1013.87 1014.38 1015.19 1016.46 1017.58 1019.55 1021.29 1021.29
1007.09 1007.55 1008.50 1009.33 1010.16 1010.07 1009.81 1010.49 1011.13 1011.04 1010.84 1010.96 1011.44 1012.00 1011.53 1010.86 1011.05 1011.48 1013.02 1013.27 1012.04 1010.68 1009.91 1009.84 1010.54 1010.85 1011.47 1011.71 1012.25 1012.91 1013.62 1013.90 1013.95 1014.06 1014.08 1014.77 1015.23 1014.90 1014.45 1014.38 1014.72 1015.09 1016.47 1018.02 1019.75 1021.68 1022.27
1006.43 1007.04 1008.06 1008.89 1009.73 1009.49 1009.45 1010.14 1010.71 1010.76 1010.51 1010.70 1011.36 1011.91 1011.45 1011.11 1011.47 1012.51 1013.62 1012.96 1011.48 1010.14 1009.48 1009.70 1010.32 1010.93 1011.43 1012.08 1012.73 1013.59 1014.26 1014.45 1014.33 1014.34 1014.45 1014.96 1015.65 1016.20 1015.56 1015.60 1015.63 1015.96 1016.85 1018.51 1020.27 1021.91 1022.72
1006.25 1006.74 1007.46 1008.48 1008.91 1009.21 1009.16 1009.77 1010.52 1010.27 1010.32 1010.88 1011.35 1012.01 1011.58 1011.59 1012.64 1013.70 1013.50 1012.10 1011.01 1010.17 1009.47 1009.64 1010.05 1010.67 1011.44 1012.35 1013.43 1014.05 1014.53 1014.72 1014.68 1014.70 1015.28 1015.84 1016.77 1017.32 1016.95 1016.39 1016.11 1016.36 1017.30 1018.73 1021.03 1022.51 1023.23
1005.88 1006.53 1007.26 1007.73 1008.38 1008.96 1008.88 1009.61 1010.14 1009.92 1009.72 1010.48 1011.44 1012.19 1011.79 1011.82 1012.91 1013.66 1012.89 1011.82 1010.91 1010.23 1010.05 1010.01 1010.36 1010.76 1011.47 1012.71 1013.95 1014.60 1014.92 1015.16 1015.03 1015.33 1015.86 1016.32 1017.44 1018.34 1018.16 1017.55 1016.88 1017.03 1017.74 1019.11 1020.64 1021.88 1022.91
1005.99 1006.50 1006.92 1007.16 1008.22 1008.48 1008.70 1009.48 1009.58 1009.62 1009.65 1010.25 1011.37 1012.76 1012.97 1012.80 1012.95 1012.86 1012.76 1011.92 1011.10 1010.39 1010.30 1010.32 1010.69 1011.04 1011.96 1013.35 1014.03 1015.05 1015.42 1015.60 1015.58 1015.81 1016.23 1016.67 1018.11 1018.66 1018.72 1018.31 1018.03 1018.01 1018.38 1019.26 1020.36 1021.95 1022.50
1005.85 1006.20 1006.47 1007.09 1007.82 1008.00 1008.63 1009.17 1009.12 1009.35 1009.53 1010.05 1011.15 1012.11 1012.00 1013.07 1013.36 1012.93 1012.53 1012.05 1011.48 1011.01 1010.77 1010.84 1011.31 1011.75 1012.50 1013.98 1014.77 1015.45 1015.87 1016.09 1016.20 1016.48 1016.91 1017.53 1019.03 1019.60 1019.82 1019.51 1018.90 1018.73 1018.92 1019.44 1020.17 1020.71 1021.53
1005.62 1006.22 1006.54 1006.81 1007.28 1007.81 1008.47 1008.62 1008.64 1008.95 1009.59 1009.97 1010.96 1011.71 1011.96 1012.32 1012.43 1012.90 1012.67 1012.27 1011.80 1011.57 1011.48 1011.72 1012.20 1012.83 1013.24 1014.08 1014.58 1015.51 1015.90 1016.37 1016.61 1017.22 1017.90 1018.82 1020.27 1020.82 1021.35 1020.96 1020.43 1019.71 1019.24 1019.37 1019.58 1019.93 1020.42
1005.31 1006.28 1006.48 1006.35 1007.32 1007.84 1008.03 1008.02 1008.29 1008.57 1008.86 1009.77 1010.31 1010.50 1010.84 1012.80 1013.00 1013.17 1012.89 1012.28 1012.03 1011.96 1012.56 1012.46 1012.79 1013.63 1014.56 1014.93 1015.25 1015.61 1016.13 1016.45 1016.87 1017.75 1019.04 1020.14 1021.43 1022.81 1023.11 1022.52 1021.47 1020.44 1018.68 1018.62 1018.64 1018.90 1019.39
1005.52 1006.03 1006.00 1006.72 1007.41 1007.59 1007.62 1007.78 1007.89 1008.40 1008.54 1008.92 1009.75 1010.36 1011.35 1013.28 1012.94 1012.66 1012.42 1012.18 1012.37 1012.55 1013.01 1013.51 1013.62 1014.12 1015.52 1015.64 1015.83 1016.35 1017.18 1017.87 1018.12 1018.89 1019.27 1021.12 1022.86 1024.06 1024.91 1023.92 1022.67 1019.31 1018.28 1018.01 1018.33 1018.78 1019.16
1005.89 1005.99 1006.16 1006.89 1007.26 1007.53 1007.65 1007.87 1008.03 1008.22 1008.43 1008.86 1009.28 1010.18 1011.01 1012.92 1012.76 1012.39 1012.38 1012.73 1013.10 1013.47 1014.07 1014.42 1014.63 1014.88 1015.48 1016.50 1017.99 1019.32 1019.93 1019.85 1020.15 1020.47 1020.68 1021.13 1023.13 1025.45 1026.13 1025.11 1022.58 1019.57 1018.42 1018.03 1018.19 1018.78 1019.22
1005.95 1005.84 1006.39 1006.92 1007.38 1007.49 1007.79 1007.95 1007.86 1007.64 1008.09 1008.61 1008.97 1009.62 1010.11 1011.53 1012.72 1012.13 1012.55 1012.77 1013.52 1014.29 1015.15 1015.40 1015.47 1015.67 1016.50 1018.65 1020.10 1021.18 1021.55 1021.19 1021.45 1021.51 1021.77 1022.44 1023.16 1024.71 1026.42 1025.99 1023.19 1019.35 1017.95 1017.56 1017.99 1018.82 1018.77
1005.63 1005.87 1006.66 1007.23 1007.35 1007.83 1007.87 1007.85 1007.58 1007.58 1008.00 1008.63 1009.48 1009.35 1009.42 1011.41 1012.38 1012.21 1012.42 1012.70 1013.42 1014.40 1015.52 1015.94 1016.19 1016.86 1017.58 1019.96 1021.71 1022.91 1022.54 1021.84 1021.87 1022.02 1022.60 1023.49 1024.60 1025.20 1025.82 1024.81 1021.63 1018.76 1017.91 1017.72 1018.72 1018.79 1018.82
1005.71 1006.40 1007.12 1007.46 1007.79 1008.03 1008.01 1007.89 1007.61 1007.41 1007.65 1007.87 1009.40 1009.04 1009.20 1011.63 1012.59 1012.35 1012.14 1012.42 1013.21 1013.82 1015.02 1016.02 1016.95 1017.73 1019.10 1020.97 1022.48 1023.14 1022.96 1022.27 1022.13 1021.79 1021.96 1022.62 1023.63 1024.44 1024.80 1023.90 1020.57 1017.98 1018.18 1018.08 1017.72 1018.06 1018.52
1006.39 1007.01 1007.54 1007.88 1008.23 1008.37 1008.27 1008.08 1007.84 1007.62 1007.64 1007.89 1009.38 1009.39 1009.31 1010.86 1012.83 1012.63 1012.60 1012.52 1012.46 1012.62 1013.67 1015.39 1016.10 1016.95 1017.99 1020.23 1022.23 1022.86 1023.28 1023.02 1022.63 1022.24 1021.30 1021.68 1020.83 1021.21 1021.48 1019.77 1018.21 1017.47 1017.05 1016.84 1017.25 1017.80 1018.67
Wind_Speed
16 15 13 11 12 12 15 14 13 12 13 14 14 15 14 14 13 11 10 9 6 4 8 9 8 8 3 2 9 6 12 13 8 7 7 6 5 6 5 5 5 5 4 5 5 8 6
16 16 13 12 13 13 16 14 12 13 13 14 14 13 12 12 11 10 9 7 5 7 9 8 7 7 2 4 6 5 9 5 5 5 7 8 9 8 4 4 5 5 4 4 4 5 4
17 15 13 13 13 13 15 14 12 13 13 13 14 12 12 11 9 8 8 7 6 8 8 7 5 3 3 14 2 7 3 7 7 7 6 7 6 5 7 2 2 5 6 4 3 1 2
17 16 14 13 13 13 13 14 12 12 14 13 12 11 11 9 8 9 7 5 6 7 6 6 4 2 8 5 4 9 4 5 6 8 4 5 7 4 3 4 7 5 6 3 3 3 3
18 16 15 14 13 12 13 13 13 11 13 12 10 10 10 9 9 7 5 4 6 6 4 1 2 3 9 9 4 4 4 4 4 1 3 2 5 4 6 6 5 7 3 2 4 3 2
19 17 16 15 13 12 13 12 12 11 12 10 9 10 9 8 8 6 4 3 4 2 2 3 5 2 5 3 4 2 1 0 3 3 7 10 7 4 4 6 4 3 2 2 6 3 4
20 18 16 15 14 12 14 11 11 12 11 9 9 10 9 8 7 7 5 3 2 1 2 8 4 4 3 6 3 3 2 3 5 9 5 6 8 2 2 2 4 3 1 3 1 3 6
20 19 17 16 14 13 13 11 9 12 10 9 9 9 8 7 7 8 2 2 4 4 4 10 6 7 6 1 4 2 2 4 4 2 3 7 2 0 7 5 6 7 6 2 1 5 8
21 18 17 16 14 14 12 10 8 12 10 8 8 7 7 8 9 5 2 6 1 1 2 5 6 4 6 7 3 2 3 2 2 2 2 5 3 5 6 7 8 5 4 2 3 5 8
22 20 18 16 14 15 10 8 8 10 9 8 7 7 8 10 3 4 4 1 2 4 6 5 2 5 3 4 3 2 1 3 3 2 6 5 5 5 6 6 4 3 1 3 3 4 4
22 19 17 16 14 13 10 7 10 9 8 8 7 8 10 1 3 3 2 3 3 6 4 4 3 2 2 4 3 3 2 4 2 4 6 3 3 5 6 1 3 3 2 2 2 3 4
23 20 18 15 15 12 10 6 10 9 7 8 7 9 12 3 1 6 4 0 6 9 2 2 4 3 4 2 1 1 5 7 3 6 7 3 1 3 2 1 1 1 4 7 5 3 3
23 20 18 15 14 12 9 5 10 9 7 7 7 12 8 3 3 1 0 5 8 4 1 4 4 3 3 2 3 3 4 6 4 6 3 5 4 4 2 2 2 6 5 3 4 4 5
24 21 18 15 13 11 8 6 10 7 7 6 9 12 7 4 3 1 4 7 2 4 5 3 5 4 5 3 4 3 3 3 5 4 3 4 4 4 5 2 3 3 5 6 5 4 3
24 21 18 16 13 12 8 6 9 8 7 9 14 2 2 3 2 2 8 4 6 6 3 7 5 4 2 2 6 5 3 2 0 2 5 4 1 3 2 2 4 1 3 3 7 3 4
25 22 19 16 16 13 9 5 8 9 8 12 4 2 2 1 2 5 7 5 4 4 1 6 4 4 5 5 4 4 1 2 2 4 2 5 4 1 2 3 3 5 4 3 5 3 1
23 21 19 18 16 12 9 7 8 9 9 8 3 4 3 4 3 7 4 6 4 4 1 4 5 4 5 6 4 3 1 3 3 2 4 3 5 5 2 3 1 4 3 6 6 4 5
22 20 19 17 15 12 9 6 10 10 9 5 4 4 3 3 6 1 4 5 3 2 6 4 4 3 6 4 4 3 4 1 5 0 2 2 6 3 1 4 3 2 3 4 6 2 1
20 19 18 16 14 11 9 7 12 12 11 5 4 2 2 5 5 2 4 3 1 2 3 2 2 2 3 5 7 3 3 1 4 3 4 2 2 4 7 8 5 2 3 5 5 3 4
19 18 17 16 14 10 8 9 11 12 9 3 5 4 4 4 1 7 3 2 0 3 3 3 3 5 5 5 6 5 3 2 2 3 3 5 3 6 8 5 3 3 2 3 5 4 3
19 17 17 16 12 9 8 10 11 12 8 2 2 5 6 4 2 4 5 2 4 2 2 4 4 3 5 4 3 4 2 2 4 2 3 4 4 2 3 4 2 2 4 6 6 5 7
18 16 16 15 11 8 7 8 10 12 9 4 5 5 3 2 6 6 3 6 7 2 2 0 6 3 1 6 7 8 6 3 3 3 3 4 1 2 1 5 5 4 6 6 6 5 6
17 16 17 14 9 6 4 7 11 14 7 3 1 2 6 3 4 6 5 6 8 6 3 2 8 6 5 2 3 4 4 5 6 6 3 4 5 4 4 4 5 7 9 9 5 4 7
16 16 15 12 8 3 5 6 8 13 5 3 2 4 5 1 4 7 7 4 6 4 8 3 5 7 4 6 4 7 12 12 11 8 3 6 5 3 2 4 2 7 4 5 4 2 3
16 17 15 11 7 6 7 6 8 10 9 2 2 4 4 3 2 3 8 6 7 6 5 4 4 0 8 6 6 6 7 7 5 7 7 3 6 4 5 3 6 5 5 6 7 8 6
18 17 13 10 7 8 7 3 4 8 11 3 2 2 4 8 3 2 5 5 6 4 4 3 4 5 7 5 5 5 5 5 2 2 5 6 7 6 3 4 7 7 3 4 3 7 9
18 15 11 9 10 6 7 5 4 7 12 5 2 3 5 6 2 2 4 6 6 5 5 2 2 3 4 3 4 4 4 3 4 6 4 3 4 5 3 3 10 8 5 3 6 10 7
16 13 9 10 10 9 9 9 7 5 8 5 0 2 5 4 2 3 3 5 4 3 7 5 6 5 4 5 4 4 3 5 2 4 7 8 7 5 3 2 10 8 3 9 8 1 8
12 11 9 10 11 9 10 10 8 5 8 5 4 2 3 7 3 1 3 3 2 5 7 2 5 4 5 6 1 4 2 2 3 4 2 3 8 7 10 9 4 5 3 2 5 6 7
Wind_Direction
221 230 235 242 249 259 270 273 275 274 280 280 280 277 276 275 270 269 260 260 257 272 270 277 294 304 314 234 253 261 105 112 122 132 175 186 179 178 210 194 145 155 199 44 88 93 105
218 217 224 235 245 256 268 272 276 277 279 280 278 274 273 266 264 260 259 254 242 255 263 271 290 307 245 257 239 81 112 132 161 169 195 190 213 194 198 222 139 153 98 113 87 111 118
211 215 218 233 243 254 265 270 273 277 281 278 275 272 266 258 256 253 250 244 248 244 257 268 283 282 257 235 298 323 240 192 189 194 197 207 215 176 135 103 82 120 76 29 15 68 116
209 213 218 228 241 252 261 268 272 280 279 277 275 272 262 257 249 244 243 245 250 250 258 271 262 244 251 257 298 300 257 271 207 194 241 206 195 162 67 114 37 80 56 102 265 151 359
209 211 216 226 237 250 260 266 274 281 278 277 278 271 259 249 240 233 230 238 243 246 249 152 178 222 269 314 282 279 190 269 302 340 20 53 62 71 38 83 36 13 166 179 335 198 75
209 210 215 225 234 245 258 264 275 282 281 282 277 265 251 237 225 210 189 204 160 134 203 210 259 304 272 273 266 273 233 243 40 352 21 31 46 75 47 69 194 217 215 212 211 212 65
206 209 213 222 231 238 253 263 274 279 282 280 272 256 238 215 203 182 145 156 61 19 214 198 209 240 271 300 293 300 10 17 35 45 52 346 62 72 45 172 192 195 148 150 41 17 86
202 204 213 221 228 237 245 258 273 276 284 272 260 244 223 193 187 179 171 188 198 189 294 220 239 279 282 192 310 291 88 74 48 69 34 17 59 347 83 38 82 61 115 84 103 31 96
196 200 210 219 223 235 238 253 272 275 278 262 249 226 187 162 160 153 200 236 343 352 100 300 199 209 234 145 198 209 85 119 118 88 90 119 302 58 104 47 79 31 85 28 111 42 39
193 197 204 214 219 232 233 246 265 272 270 253 229 198 162 148 180 170 236 280 311 155 68 287 218 258 189 131 61 246 141 128 46 182 124 87 332 89 63 83 103 69 313 51 49 84 179
190 195 200 210 218 227 229 240 263 269 262 241 208 187 168 214 157 170 246 314 183 56 89 244 223 242 122 123 157 334 338 52 97 150 91 223 97 81 64 40 90 184 150 162 135 96 83
186 192 198 204 215 218 224 231 266 270 254 228 197 179 136 282 256 244 335 30 54 47 233 205 159 167 87 53 49 52 50 39 89 69 51 94 106 82 170 26 7 140 89 44 47 84 52
183 187 193 202 210 213 216 214 258 256 253 209 192 167 170 157 214 276 41 49 46 132 156 159 148 134 124 141 74 73 55 27 97 82 33 15 352 326 81 109 0 66 70 6 14 14 212
181 183 185 197 201 207 199 227 254 241 241 186 181 148 242 238 292 113 61 54 213 241 199 157 124 95 148 141 20 64 79 61 23 88 119 128 349 3 337 107 179 31 131 148 187 189 249
181 177 178 190 189 198 178 216 252 224 211 142 134 203 249 263 200 79 74 80 219 218 208 127 72 101 109 80 115 89 72 128 165 50 127 122 321 321 34 24 118 200 51 157 105 13 64
179 174 174 175 188 190 166 207 238 222 180 160 128 129 258 335 114 65 78 223 240 227 163 103 130 158 165 164 94 90 104 320 105 44 167 186 108 337 308 58 22 119 146 57 7 112 209
172 168 168 167 186 180 164 191 226 206 174 171 76 89 268 8 61 55 160 225 269 285 122 110 154 158 177 165 109 83 120 4 6 32 62 104 102 277 21 19 204 1 34 54 105 111 153
169 166 158 168 173 177 158 181 211 192 162 113 115 95 301 52 66 59 171 207 266 325 21 58 95 102 156 125 77 110 139 104 332 133 75 40 122 98 189 297 297 184 122 114 109 216 71
165 162 158 158 162 172 150 190 201 192 185 133 106 109 327 92 132 271 262 283 42 39 40 60 93 72 93 126 99 91 95 338 1 76 139 147 33 68 356 351 348 112 69 89 105 84 199
163 159 156 147 159 158 155 195 193 194 191 101 102 96 335 46 162 139 156 249 342 18 74 59 102 72 82 57 30 137 117 23 39 93 133 100 95 149 180 203 184 156 128 115 118 118 193
161 157 145 143 150 149 169 196 184 187 187 113 85 212 181 189 254 148 151 176 150 103 53 33 53 79 131 113 77 106 118 138 45 13 70 89 116 94 64 14 3 217 179 178 189 188 166
151 151 140 137 139 154 190 196 178 166 169 78 131 139 35 133 126 121 132 192 169 155 127 29 115 35 51 144 174 188 139 164 180 33 71 12 152 73 116 5 1 284 233 231 237 218 249
137 144 138 123 142 161 192 170 169 169 161 133 216 33 106 297 106 106 205 180 202 129 46 25 141 99 49 335 99 73 63 84 131 131 107 76 114 84 257 343 336 332 223 192 202 193 154
134 138 125 128 136 129 115 141 152 184 197 129 174 103 94 193 140 172 176 174 171 185 141 63 73 97 154 135 109 42 48 54 54 32 78 117 89 71 203 21 359 243 306 240 184 245 219
139 132 122 126 109 95 101 127 152 168 183 101 96 121 128 124 217 89 110 120 88 61 70 71 348 331 128 52 62 49 352 19 356 32 20 75 117 95 136 199 297 291 193 152 174 252 199
137 122 118 118 108 88 93 113 168 149 160 103 51 111 116 119 286 115 121 166 132 109 33 42 35 55 66 77 73 131 189 201 248 91 52 56 70 110 128 145 216 240 258 136 111 296 184
123 111 120 112 97 88 74 52 52 118 161 136 167 204 86 103 311 82 149 161 120 96 106 118 145 58 43 71 82 139 223 183 175 176 199 42 11 155 145 225 285 239 208 124 100 238 160
113 114 111 98 96 63 53 35 29 67 142 95 160 354 114 99 356 15 22 130 108 107 135 192 61 338 44 70 118 196 148 222 127 184 180 168 148 198 92 85 277 176 96 163 207 177 168
117 110 107 89 79 71 50 37 22 63 138 133 87 335 36 82 142 49 102 85 27 167 127 37 157 160 167 93 134 131 153 160 138 239 119 244 188 184 182 214 250 241 212 229 165 152 187